Tracking 19720 objects as of 26-Jun-2019
HD Live streaming from Space Station
objects crossing your sky now

FENGYUN 1C DEB

Track FENGYUN 1C DEB now!
10-day predictions


NORAD ID: 31767
Int'l Code: 1999-025CFS
Perigee: 857.9 km
Apogee: 918.7 km
Inclination: 99.1 °
Period: 102.6 minutes
Semi major axis: 7259 km
RCS: 0.0074 m2 (small)
Launch date: May 10, 1999
Source: People's Republic of China (PRC)
Launch site: Taiyaun Space Center, China (TSC)

Note: This is SATELLITE DEBRIS
aabbcc
Your satellite tracking list
Your tracking list is empty




NASA's NSSDC Master Catalog

Two Line Element Set (TLE):
1 31767U 99025CFS 19175.58096477 -.00000239  00000-0 -12266-3 0  9994
2 31767  99.1061 204.5368 0041837 168.1374 343.7304 14.03654724618031
Source of the keplerian elements: AFSPC